Milton, FL

3:37 AM CDT on May 27, 2017 (GMT -0500)
Whiting Field Naval Air Station (South)

Weather History for KNDZ - March, 2012

Change the Weather History Date:

Monday, March 26, 2012

  Actual Average (KNSE) Record (KNSE)
Temperature  
Mean Temperature 69 °F -  
Max Temperature 84 °F 71 °F 84 °F (2011)
Min Temperature 54 °F 50 °F 32 °F (2013)
Cooling Degree Days 4    
Growing Degree Days 19 (Base 50)    
Moisture  
Dew Point 54 °F    
Average Humidity 64    
Maximum Humidity 93    
Minimum Humidity 34    
Precipitation  
Precipitation 0.00 in - - ()
Sea Level Pressure  
Sea Level Pressure 29.97 in    
Wind  
Wind Speed 4 mph (NNW)    
Max Wind Speed 12 mph    
Max Gust Speed 18 mph    
Visibility 10 miles    
Events      
Averages and records for this station are not official NWS values.
T = Trace of Precipitation, MM = Missing Value Source: NWS Daily Summary

Daily Weather History Graph

Daily Weather History Graph

Search for Another Location

Airport or City:

Trip Planner

Search our weather history database for the weather conditions in past years. The results will help you decide how hot, cold, wet, or windy it might be!

Date:

Astronomy

Mar. 26, 2012 Rise Set
Actual Time 6:43 AM CDT 7:03 PM CDT
Civil Twilight 6:19 AM CDT 7:27 PM CDT
Nautical Twilight 5:51 AM CDT 7:56 PM CDT
Astronomical Twilight 5:22 AM CDT 8:24 PM CDT
Moon 8:50 AM CDT (3/26) 10:54 PM CDT (3/26)
Length of Visible Light 13h 08m
Length of Day
12h 19m
Waxing Crescent, 15% of the Moon is Illuminated
Mar 26
Waxing Crescent
Mar 30
First Quarter
Apr 6
Full
Apr 13
Last Quarter
Apr 21
New

Hourly Weather History & Observations

Time (CDT) Temp. Heat Index Dew Point Humidity Pressure Visibility Wind Dir Wind Speed Gust Speed Precip Events Conditions
12:56 AM 55.9 °F - 53.1 °F 90% 29.93 in 10.0 mi WNW 3.5 mph - N/A   Clear
1:56 AM 55.9 °F - 53.1 °F 90% 29.93 in 10.0 mi WNW 3.5 mph - N/A   Clear
2:56 AM 55.0 °F - 52.0 °F 89% 29.93 in 10.0 mi Calm Calm - N/A   Clear
3:56 AM 54.0 °F - 52.0 °F 93% 29.92 in 10.0 mi Calm Calm - N/A   Clear
4:56 AM 54.0 °F - 52.0 °F 93% 29.94 in 10.0 mi Calm Calm - N/A   Clear
5:56 AM 55.9 °F - 52.0 °F 87% 29.95 in 10.0 mi NNW 3.5 mph - N/A   Clear
6:56 AM 55.9 °F - 52.0 °F 87% 29.98 in 10.0 mi Calm Calm - N/A   Clear
7:56 AM 59.0 °F - 55.0 °F 87% 30.01 in 10.0 mi Calm Calm - N/A   Clear
8:56 AM 69.1 °F - 54.0 °F 58% 30.01 in 10.0 mi NNE 9.2 mph - N/A   Clear
9:56 AM 73.9 °F - 54.0 °F 50% 30.02 in 10.0 mi NE 6.9 mph - N/A   Clear
10:56 AM 75.9 °F - 53.1 °F 45% 30.02 in 10.0 mi Calm Calm - N/A   Clear
11:56 AM 77.0 °F - 52.0 °F 42% 30.01 in 10.0 mi Variable 3.5 mph 16.1 mph N/A   Clear
12:56 PM 80.1 °F - 52.0 °F 38% 29.99 in 10.0 mi NNW 8.1 mph - N/A   Clear
1:56 PM 82.0 °F 81.2 °F 53.1 °F 37% 29.97 in 10.0 mi North 11.5 mph 18.4 mph N/A   Clear
2:56 PM 84.0 °F 82.5 °F 53.1 °F 34% 29.94 in 10.0 mi North 11.5 mph 17.3 mph N/A   Clear
3:56 PM 82.9 °F - 52.0 °F 34% 29.93 in 10.0 mi North 8.1 mph - N/A   Clear
4:56 PM 82.9 °F - 52.0 °F 34% 29.93 in 10.0 mi Variable 6.9 mph - N/A   Clear
5:56 PM 82.0 °F - 52.0 °F 35% 29.93 in 10.0 mi NNE 5.8 mph - N/A   Clear
6:56 PM 75.9 °F - 54.0 °F 46% 29.94 in 10.0 mi North 3.5 mph - N/A   Clear
7:56 PM 68.0 °F - 59.0 °F 73% 29.96 in 10.0 mi South 5.8 mph - N/A   Clear
8:56 PM 69.1 °F - 57.0 °F 65% 29.99 in 10.0 mi Calm Calm - N/A   Clear
9:56 PM 66.9 °F - 57.0 °F 70% 30.00 in 10.0 mi Calm Calm - N/A   Clear
10:56 PM 64.0 °F - 57.0 °F 78% 30.01 in 10.0 mi WNW 3.5 mph - N/A   Clear
11:56 PM 60.1 °F - 57.0 °F 90% 30.01 in 10.0 mi WNW 3.5 mph - N/A   Clear